Weather History for Teterboro, NJ

Change the Weather History Date:

Sunday, November 18, 2012

  Actual Average Record
Temperature  
Mean Temperature 41 °F -  
Max Temperature 48 °F 51 °F 66 °F (2013)
Min Temperature 34 °F 35 °F 24 °F (1997)
Degree Days  
Heating Degree Days 24    
Moisture  
Dew Point 32 °F    
Average Humidity 68    
Maximum Humidity 79    
Minimum Humidity 52    
Precipitation  
Precipitation 0.00 in - - ()
Sea Level Pressure  
Sea Level Pressure 30.62 in    
Wind  
Wind Speed 3 mph (NE)    
Max Wind Speed 8 mph    
Max Gust Speed -    
Visibility 10 miles    
Events      
Averages and records for this station are not official NWS values.
T = Trace of Precipitation, MM = Missing Value Source: NWS Daily Summary

Daily Weather History Graph

Daily Weather History Graph

Search for Another Location

Airport:

Trip Planner

Search our weather history database for the weather conditions in past years. The results will help you decide how hot, cold, wet, or windy it might be!

Date:

Astronomy

Nov. 18, 2012 Rise Set
Actual Time 6:47 AM EST 4:35 PM EST
Civil Twilight 6:17 AM EST 5:04 PM EST
Nautical Twilight 5:44 AM EST 5:38 PM EST
Astronomical Twilight 5:11 AM EST 6:10 PM EST
Moon 11:12 AM EST (11/18) 9:52 PM EST (11/18)
Length of Visible Light 10h 47m
Length of Day
9h 47m
Waxing Crescent, 30% of the Moon is Illuminated
Nov 18
Waxing Crescent
Nov 20
First Quarter
Nov 28
Full
Dec 6
Last Quarter
Dec 13
New

Hourly Weather History & Observations

Time (EST) Temp. Windchill Dew Point Humidity Pressure Visibility Wind Dir Wind Speed Gust Speed Precip Events Conditions
12:51 AM 39.0 °F - 28.9 °F 67% 30.63 in 10.0 mi Calm Calm - N/A   Clear
1:51 AM 37.9 °F 35.5 °F 30.0 °F 73% 30.63 in 10.0 mi North 3.5 mph - N/A   Clear
2:51 AM 37.0 °F 33.3 °F 28.9 °F 73% 30.63 in 10.0 mi North 4.6 mph - N/A   Clear
3:51 AM 37.0 °F 34.5 °F 30.0 °F 76% 30.63 in 10.0 mi North 3.5 mph - N/A   Clear
4:51 AM 34.0 °F 31.0 °F 28.0 °F 79% 30.64 in 10.0 mi North 3.5 mph - N/A   Clear
5:51 AM 36.0 °F 32.1 °F 28.9 °F 76% 30.64 in 10.0 mi North 4.6 mph - N/A   Clear
6:51 AM 35.1 °F - 28.9 °F 78% 30.66 in 10.0 mi Calm Calm - N/A   Clear
7:51 AM 37.0 °F 33.3 °F 30.0 °F 76% 30.67 in 10.0 mi North 4.6 mph - N/A   Clear
8:51 AM 41.0 °F 36.4 °F 30.9 °F 67% 30.67 in 10.0 mi North 6.9 mph - N/A   Clear
9:51 AM 45.0 °F 41.8 °F 32.0 °F 60% 30.67 in 10.0 mi NE 5.8 mph - N/A   Clear
10:51 AM 48.0 °F - 33.1 °F 56% 30.67 in 10.0 mi East 5.8 mph - N/A   Clear
11:51 AM 48.0 °F - 34.0 °F 58% 30.63 in 10.0 mi East 5.8 mph - N/A   Clear
12:51 PM 48.9 °F - 33.1 °F 54% 30.61 in 10.0 mi East 8.1 mph - N/A   Clear
1:51 PM 48.9 °F - 32.0 °F 52% 30.61 in 10.0 mi East 8.1 mph - N/A   Clear
2:51 PM 48.9 °F - 33.1 °F 54% 30.61 in 10.0 mi East 4.6 mph - N/A   Clear
3:51 PM 46.9 °F - 34.0 °F 61% 30.60 in 10.0 mi ENE 5.8 mph - N/A   Clear
4:51 PM 46.9 °F - 33.1 °F 59% 30.59 in 10.0 mi ENE 4.6 mph - N/A   Clear
5:51 PM 46.0 °F - 34.0 °F 63% 30.60 in 10.0 mi Calm Calm - N/A   Clear
6:51 PM 45.0 °F - 35.1 °F 68% 30.60 in 10.0 mi Calm Calm - N/A   Clear
7:51 PM 43.0 °F 40.3 °F 34.0 °F 71% 30.60 in 10.0 mi North 4.6 mph - N/A   Clear
8:51 PM 42.1 °F - 34.0 °F 73% 30.60 in 10.0 mi Calm Calm - N/A   Mostly Cloudy
9:51 PM 42.1 °F 40.2 °F 35.1 °F 76% 30.59 in 10.0 mi North 3.5 mph - N/A   Overcast
10:51 PM 41.0 °F 39.0 °F 35.1 °F 79% 30.58 in 10.0 mi NNE 3.5 mph - N/A   Mostly Cloudy
11:51 PM 39.9 °F 36.7 °F 34.0 °F 79% 30.57 in 10.0 mi North 4.6 mph - N/A   Clear